SL-16 R/B (22803 NORAD) Tracking and Keplerian Element Data

This shows tracking and keplerian element data for the satellite.

Feedback or suggestion? Click here.




ElementValue
Catalog22803
NameSL-16 R/B
Epoch Orbit28364
Epoch Day195.85137383
Epoch Year2018
RAAN141.9947
Inclination70.9903
Eccentricity0.0016101
Argument of Perigee154.6484
Mean Anonmoly205.5433
Mean Motion14.16796323
Decay Rate-2.43E-06
L11 22803U 93059B 18195.85137383 -.00000243 00000-0 -97324-4 0 9993
L22 22803 70.9903 141.9947 0016101 154.6484 205.5433 14.16796323283648

Live tracking and technical data element details for SL-16 R/B (NORAD 22803). SL-16 R/B can be tracked NOW for your location showing map with azimuth and elevation plus other details from your city location.

Track the satellite on the map from your city or location and see movement details for azimuth, elevation, latitude, longitude, range, height, and movement on the map or in text.







IsCatalogInMostPopularTable: catalog: 22803, numindb: 25
Update: records affected: 1



GetName: 22803 SL-16 R/B

Hit Count: updated at: Sun, 15 Jul 2018 23:15:46 GMT